ARIANE 44P R/B, 26488

Orbit data source: Space-Track

ARIANE 44P R/B, 26488 is space debris in HEO originally from a launch on Wed, 06 Sep 2000 UTC launched from the French Guiana (FRGUI). Debris objects in space refer to the collection of defunct objects orbiting the Earth. Examples of debris include non-operational satellites, rocket bodies, and fragments generated from explosions, collisions, or faulty payload assembly.

Loading next visibility...
Identifier
26488, 2000-052B
Orbit
HEO
Country
Flag of FRFR
Related business
Manufacturer
EADS/LV
Mission
Spacecraft
Bus & Motor
ARIANE H10-3, HM-7B
Mass
1,820 kg wet, 1,820 kg dry
Launch date (UTC)
2000-09-06 (26 years ago)
Launch vehicle
Unknown
Launch site
French Guiana (FRGUI)
Object type
Payload
Rocket body
Debris
Shape & HBR
Cyl, 6.0 m
Radar Cross Section
27.363 m², Large (>1 m²)

Expand to show TLE details & history
Last TLE update: 21 hours ago

TLE from 21 hours ago
0 ARIANE 44P R/B
1 26488U 00052B   26094.52306695  .00002422  00000-0  38621-2 0  9994
2 26488   7.4788 344.2477 7181193   6.2732 359.4074  2.34979488211915
Epoch: 2026-04-04T12:33Z
TLE epoch observation values (Epoch: 2026-04-04T12:33:12.984Z)
Latitude
-0.00039°
Longitude
-36.94806°
Altitude
358.024 km
Speed
10.082 km/s
True Right ascension
22h 56m 47s
True Declination
0° 00' 01"
Sunlit
Object was in daylight at epoch
Visualization orbit readout
Latitude
Unknown
Longitude
Unknown
Altitude
Unknown
Speed
Unknown
Apparent Right ascension
Unknown
Apparent Declination
Unknown
Sunlit
N/A
Visualization observer readout
Local Sidereal Time
15:15:29
Azimuth
Unknown
Elevation
Unknown
Doppler factor
Unknown
Orbital elements
Apogee altitude
34,692.581 km
Perigee altitude
360.07 km
Semi-major axis
23,904.462 km
Eccentricity
0.71812
Inclination
7.4788°
RAAN
344.2477°
Arg. of periapsis
6.2732°
True anomaly
354.81565°
Mean anomaly
359.4074°
Eccentric anomaly
357.89889°
Mean motion
0.58725 °/min
Orbital period
613.02 mins
BSTAR
0.0038621
Loading maneuver chart data...
Computing Atmospheric mass density...
Loading historical data...
Loading historical data...
Loading historical data...
Loading historical data...
Loading historical data...
Loading historical data...
Loading historical data...
Other satellites on launch #52 in the year 2000 (2000-09-06 UTC)

Documentation

Showing up to 5 results
|